Retour au catalogue

STARLINK-31921

ActifCommunicationsVLEO
NORAD 59868·PAYLOAD·🇺🇸 United States

Lancé May 24, 2024 depuis Cape Canaveral Space Force Station

Loading…

Prochains Passages (prochaines 24 heures)

TLE

FraisSource: CelesTrak SupGP

Époque: Sep 14, 2026, 22:55 UTC

1 59868C 24098L   26257.95534722  .00024755  00000+0  89677-3 0  2577
2 59868  42.9992 248.7685 0001368 263.4769 221.8864 15.27561309    19

Suivez STARLINK-31921 en temps réel avec AllMySat

Download on the App Store